Overview Statistics Trail Chart Weather Telemetry Raw packets
 

This is the latest recevied weather packets stored in our database for station/object KW4UJ. If no packets are shown the sender has not sent any weather packets the latest 10 day(s).

<< 51 52 53 54 55 56 57 >>
Time Temp. Humidity Pressure Rain* Wind** Luminosity Snow
1788288044 33.89° C 55% 1015.7 hPa 0 mm - 150 W/m² -
1788287744 35° C 53% 1015.6 hPa 0 mm - 307 W/m² -
1788287439 35° C 54% 1015.7 hPa 0 mm - 366 W/m² -
1788287136 34.44° C 54% 1015.8 hPa 0 mm - 586 W/m² -
1788286836 34.44° C 54% 1015.7 hPa 0 mm - 561 W/m² -
1788286548 33.89° C 53% 1015.6 hPa 0 mm - 562 W/m² -
1788286235 33.89° C 56% 1015.6 hPa 0 mm - 570 W/m² -
1788285933 33.89° C 56% 1015.6 hPa 0 mm - 583 W/m² -
1788285629 33.33° C 59% 1015.7 hPa 0 mm - 571 W/m² -
1788285323 33.33° C 58% 1015.4 hPa 0 mm - 207 W/m² -
1788285022 33.33° C 58% 1015.5 hPa 0 mm - 273 W/m² -
1788284719 33.33° C 58% 1015.8 hPa 0 mm - 213 W/m² -
1788284414 33.89° C 55% 1015.6 hPa 0 mm - 215 W/m² -
1788284109 33.33° C 59% 1015.7 hPa 0 mm - 676 W/m² -
1788283805 33.89° C 57% 1015.7 hPa 0 mm - 225 W/m² -
1788283500 33.89° C 58% 1015.7 hPa 0 mm - 455 W/m² -
1788283198 33.89° C 58% 1015.9 hPa 0 mm - 282 W/m² -
1788282897 33.89° C 59% 1015.8 hPa 0 mm - 266 W/m² -
1788282595 33.89° C 58% 1015.8 hPa 0 mm - 369 W/m² -
1788282291 33.89° C 60% 1015.9 hPa 0 mm - 281 W/m² -
1788281990 33.89° C 58% 1016 hPa 0 mm - 763 W/m² -
1788281685 33.33° C 59% 1016.1 hPa 0 mm - 624 W/m² -
1788281381 33.33° C 59% 1016.3 hPa 0 mm - 520 W/m² -
1788281076 33.33° C 59% 1016.2 hPa 0 mm - 526 W/m² -
1788280771 33.33° C 58% 1016.2 hPa 0 mm - 565 W/m² -

* Rain latest hour (hover to see other rain measurements)
** Current wind speed in m/s (hover to see current wind gust speed)